EW9965 Weather Reports


Display with metric or nautical units.
time (UTC)temp
F
wind
direction
speed
MPH
gust
MPH
rain 1hr
in
rain 24hr
in
rain mn
in
humidity
%
barometer
mb
20260903011527 80 162 2.0 7.0 0.00 0.00 0.00 48 1013.8
20260903010028 81 207 1.0 7.0 0.00 0.00 0.00 46 1013.7
20260903004529 82 170 4.0 9.0 0.00 0.00 0.00 42 1013.6
20260903003021 83 217 2.0 13.0 0.00 0.00 0.00 42 1013.6
20260903001522 83 182 2.0 9.0 0.00 0.00 0.00 41 1013.6
20260903000035 84 117 4.0 9.0 0.00 0.00 0.00 42 1013.6
20260902234517 85 162 2.0 9.0 0.00 0.00 0.00 43 1013.6
20260902233016 85 155 3.0 9.0 0.00 0.00 0.00 41 1013.7
20260902231518 85 228 3.0 9.0 0.00 0.00 0.00 43 1013.9
20260902230011 86 190 3.0 9.0 0.00 0.00 0.00 40 1014.0
20260902224510 86 245 3.0 10.0 0.00 0.00 0.00 41 1014.1
20260902223019 86 125 6.0 12.0 0.00 0.00 0.00 41 1014.2
20260902221507 86 163 6.0 12.0 0.00 0.00 0.00 41 1014.3
20260902220013 87 243 2.0 11.0 0.00 0.00 0.00 40 1014.4
20260902214519 87 255 3.0 12.0 0.00 0.00 0.00 40 1014.3
20260902213004 88 211 5.0 12.0 0.00 0.00 0.00 38 1014.3
20260902211505 89 183 3.0 11.0 0.00 0.00 0.00 36 1014.2
20260902210010 90 186 4.0 10.0 0.00 0.00 0.00 35 1014.1
20260902204503 89 144 5.0 9.0 0.00 0.00 0.00 34 1014.2
20260902203059 90 210 4.0 9.0 0.00 0.00 0.00 32 1014.2
20260902201556 89 139 3.0 10.0 0.00 0.00 0.00 31 1014.4
20260902200053 88 169 4.0 14.0 0.00 0.00 0.00 35 1014.5
20260902194551 88 188 4.0 10.0 0.00 0.00 0.00 33 1014.9
20260902193051 88 165 3.0 8.0 0.00 0.00 0.00 34 1015.0
20260902191549 87 195 3.0 9.0 0.00 0.00 0.00 34 1015.3
20260902190043 85 144 4.0 9.0 0.00 0.00 0.00 35 1015.4
20260902184544 85 205 3.0 9.0 0.00 0.00 0.00 37 1015.6
20260902183043 83 235 3.0 7.0 0.00 0.00 0.00 45 1015.8
20260902181534 82 219 2.0 8.0 0.00 0.00 0.00 46 1015.8
20260902180035 81 159 2.0 7.0 0.00 0.00 0.00 49 1015.9
20260902174534 80 204 2.0 7.0 0.00 0.00 0.00 52 1015.8
20260902173034 78 221 3.0 9.0 0.00 0.00 0.00 57 1015.8
20260902171519 75 156 0.0 5.0 0.00 0.00 0.00 62 1015.8
20260902170012 75 249 1.0 4.0 0.00 0.00 0.00 65 1015.8
20260902164509 72 144 1.0 4.0 0.00 0.00 0.00 70 1015.8
20260902163004 70 128 0.0 2.0 0.00 0.00 0.00 71 1016.0
20260902161600 69 63 0.0 4.0 0.00 0.00 0.00 74 1016.3
20260902160104 68 160 0.0 4.0 0.00 0.00 0.00 76 1016.2
20260902154555 68 230 0.0 5.0 0.00 0.00 0.00 77 1016.2
20260902153055 68 163 2.0 5.0 0.00 0.00 0.00 77 1016.0
20260902151552 66 197 2.0 4.0 0.00 0.00 0.00 77 1016.1
20260902150047 63 340 0.0 1.0 0.00 0.00 0.00 80 1016.3
20260902144543 61 18 2.0 5.0 0.00 0.00 0.00 81 1016.0
20260902143040 60 355 4.0 6.0 0.00 0.00 0.00 82 1016.1
20260902141548 59 36 1.0 5.0 0.00 0.00 0.00 84 1016.2
20260902140034 58 3 0.0 2.0 0.00 0.00 0.00 84 1016.1
20260902134531 58 6 0.0 0.0 0.00 0.00 0.00 84 1015.9
20260902133035 58 5 0.0 0.0 0.00 0.00 0.00 84 1015.7
20260902131526 59 5 0.0 0.0 0.00 0.00 0.00 84 1015.4
20260902130024 59 5 0.0 0.0 0.00 0.00 0.00 84 1015.1
20260902124526 60 5 0.0 4.0 0.00 0.00 0.00 84 1015.2
20260902123021 60 13 1.0 5.0 0.00 0.00 0.00 84 1015.3
20260902121518 61 1 0.0 4.0 0.00 0.00 0.00 83 1015.2
20260902120021 62 17 0.0 2.0 0.00 0.00 0.00 84 1015.1
20260902114516 63 36 0.0 2.0 0.00 0.00 0.00 83 1015.2
20260902113013 63 13 0.0 2.0 0.00 0.00 0.00 84 1015.3
20260902111513 63 36 1.0 3.0 0.00 0.00 0.00 83 1015.2
20260902110011 64 41 0.0 2.0 0.00 0.00 0.00 84 1015.3
20260902104516 64 7 1.0 3.0 0.00 0.00 0.00 84 1015.4
20260902103008 63 42 0.0 4.0 0.00 0.00 0.00 84 1015.6
20260902101509 63 20 0.0 0.0 0.00 0.00 0.00 85 1015.6
20260902100008 63 32 0.0 0.0 0.00 0.00 0.00 85 1015.7
20260902094506 63 5 0.0 2.0 0.00 0.00 0.00 85 1015.6
20260902093007 63 3 1.0 4.0 0.00 0.00 0.00 85 1015.6
20260902091506 63 31 0.0 1.0 0.00 0.00 0.00 84 1015.7
20260902090010 63 15 0.0 0.0 0.00 0.00 0.00 84 1015.8
20260902084504 63 4 0.0 0.0 0.00 0.00 0.00 84 1015.8
20260902083101 63 4 0.0 1.0 0.00 0.00 0.00 83 1015.8
20260902081556 64 4 1.0 2.0 0.00 0.00 0.00 83 1015.8
20260902080054 64 33 0.0 2.0 0.00 0.00 0.00 83 1015.9
20260902074552 64 357 1.0 2.0 0.00 0.00 0.00 82 1016.0
20260902073055 65 42 1.0 2.0 0.00 0.00 0.00 81 1016.1
20260902071551 65 28 0.0 2.0 0.00 0.00 0.00 81 1015.8
20260902070051 65 62 0.0 1.0 0.00 0.00 0.00 80 1015.6
20260902064547 65 78 0.0 1.0 0.00 0.00 0.00 79 1015.7
20260902063049 66 69 0.0 2.0 0.00 0.00 0.00 78 1015.6
20260902061557 66 135 0.0 2.0 0.00 0.00 0.00 77 1015.4
20260902060041 67 135 0.0 2.0 0.00 0.00 0.00 76 1015.2
20260902054543 67 135 0.0 2.0 0.00 0.00 0.00 75 1015.2
20260902053040 67 113 0.0 1.0 0.00 0.00 0.00 74 1015.2
20260902051539 68 113 0.0 0.0 0.00 0.00 0.00 73 1015.3
20260902050040 68 113 0.0 0.0 0.00 0.00 0.00 73 1015.2
20260902044538 69 113 0.0 1.0 0.00 0.00 0.00 72 1015.3
20260902043042 69 119 0.0 1.0 0.00 0.00 0.00 71 1015.1
20260902041549 70 119 0.0 2.0 0.00 0.00 0.00 71 1015.0
20260902040036 71 201 0.0 2.0 0.00 0.00 0.00 71 1014.5
20260902034536 71 167 0.0 4.0 0.00 0.00 0.00 70 1014.3
20260902033036 72 169 0.0 4.0 0.00 0.00 0.00 69 1014.3
20260902031536 73 178 0.0 2.0 0.00 0.00 0.00 68 1013.9
20260902030034 73 166 0.0 5.0 0.00 0.00 0.00 67 1013.9
20260902024536 75 163 2.0 7.0 0.00 0.00 0.00 64 1013.6
20260902023035 76 251 0.0 6.0 0.00 0.00 0.00 62 1013.5
20260902021533 77 217 2.0 5.0 0.00 0.00 0.00 59 1013.4
20260902020046 78 202 1.0 6.0 0.00 0.00 0.00 57 1013.3
20260902014531 79 161 1.0 7.0 0.00 0.00 0.00 54 1013.4
20260902013034 80 168 2.0 7.0 0.00 0.00 0.00 51 1013.2